Location: Little Arabia
(41.4620°N, 81.7687°W)
Time: 20:20:20
(UTC+00:00)

Feng Yun 1-1 Rocket - Pass Details

Date: 29 October 2020
Orbit: 829 x 934 km, 99.2° (Epoch: 03 December)

Event Time Altitude Azimuth Distance (km) Brightness Sun altitude
Rises 23:27:31 0° 164° (SSE) 3,554 7.4 -12.2°
Reaches altitude 10° 23:29:54 10° 164° (SSE) 2,623 6.7 -12.7°
Maximum altitude 23:35:48 89° 249° (WSW) 940 4.4 -13.8°
Drops below altitude 10° 23:41:46 10° 346° (NNW) 2,649 6.9 -14.9°
Sets 23:44:13 0° 346° (NNW) 3,592 7.6 -15.3°
